When you browse on this site, cookies collect data to enhance your experience and personalize the content and advertising you see.
Visit our Privacy Policy to learn more. By continuing to use the site, you agree to this use of cookies and data.
  • Em Portugal
  • Lista de países
  • Para 7 dias
  • Temperatura da água
  • Mapa do tempo
  • Widgets de tempo
  • user-avatar
    Iniciar Sessão

    Previsão horária em Naftalan

    Hoje, 22 Agosto, Quinta-feira

    Tempo Temperatura Precipitação Vento Pressão Humidade
    00:00 +25°C° 0 mm 2 m/s 761 mmHg 67%
    01:00 +25°C° 0 mm 2 m/s 761 mmHg 66%
    02:00 +25°C° 0 mm 2 m/s 761 mmHg 64%
    03:00 +25°C° 0 mm 2 m/s 761 mmHg 63%
    04:00 +26°C° 0 mm 2 m/s 761 mmHg 62%
    05:00 +26°C° 0 mm 2 m/s 761 mmHg 62%
    06:00 +27°C° 0 mm 1 m/s 761 mmHg 61%
    07:00 +29°C° 0 mm 2 m/s 761 mmHg 53%
    08:00 +31°C° 0 mm 2 m/s 761 mmHg 44%
    09:00 +34°C° 0 mm 2 m/s 761 mmHg 35%
    10:00 +35°C° 0 mm 3 m/s 760 mmHg 33%
    11:00 +36°C° 0 mm 3 m/s 760 mmHg 31%
    12:00 +37°C° 0 mm 4 m/s 760 mmHg 28%
    13:00 +37°C° 0 mm 4 m/s 759 mmHg 29%
    14:00 +36°C° 0 mm 5 m/s 759 mmHg 30%
    15:00 +36°C° 0 mm 5 m/s 759 mmHg 31%
    16:00 +35°C° 0 mm 5 m/s 759 mmHg 37%
    17:00 +33°C° 0 mm 4 m/s 759 mmHg 43%
    18:00 +32°C° 0 mm 4 m/s 759 mmHg 49%
    19:00 +30°C° 0 mm 4 m/s 759 mmHg 54%
    20:00 +28°C° 0 mm 3 m/s 759 mmHg 60%
    21:00 +27°C° 0 mm 3 m/s 760 mmHg 66%
    22:00 +26°C° 0 mm 2 m/s 760 mmHg 69%
    23:00 +26°C° 0 mm 2 m/s 760 mmHg 72%

    Amanhã, 23 Agosto, Sexta-feira

    Tempo Temperatura Precipitação Vento Pressão Humidade
    00:00 +25°C° 0 mm 1 m/s 760 mmHg 75%
    01:00 +25°C° 0 mm 1 m/s 760 mmHg 74%
    02:00 +25°C° 0 mm 1 m/s 760 mmHg 72%
    03:00 +25°C° 0 mm 1 m/s 760 mmHg 70%
    04:00 +26°C° 0 mm 1 m/s 760 mmHg 68%
    05:00 +26°C° 0 mm 1 m/s 760 mmHg 66%
    06:00 +26°C° 0 mm 1 m/s 760 mmHg 64%
    07:00 +29°C° 0 mm 1 m/s 760 mmHg 55%
    08:00 +31°C° 0 mm 1 m/s 760 mmHg 46%
    09:00 +34°C° 0 mm 1 m/s 760 mmHg 37%
    10:00 +36°C° 0 mm 2 m/s 760 mmHg 33%
    11:00 +37°C° 0 mm 3 m/s 760 mmHg 30%
    12:00 +38°C° 0 mm 4 m/s 760 mmHg 26%
    13:00 +38°C° 0 mm 4 m/s 759 mmHg 27%
    14:00 +37°C° 0 mm 5 m/s 759 mmHg 29%
    15:00 +37°C° 0 mm 5 m/s 759 mmHg 30%
    16:00 +35°C° 0 mm 5 m/s 759 mmHg 37%
    17:00 +34°C° 0 mm 4 m/s 759 mmHg 43%
    18:00 +32°C° 0 mm 4 m/s 759 mmHg 50%
    19:00 +30°C° 0 mm 4 m/s 759 mmHg 55%
    20:00 +29°C° 0 mm 3 m/s 759 mmHg 60%
    21:00 +28°C° 0 mm 3 m/s 760 mmHg 65%
    22:00 +27°C° 0 mm 3 m/s 760 mmHg 67%
    23:00 +27°C° 0 mm 2 m/s 760 mmHg 69%

    Depois de amanhã, 24 Agosto, Sábado

    Tempo Temperatura Precipitação Vento Pressão Humidade
    00:00 +27°C° 0 mm 2 m/s 760 mmHg 71%
    01:00 +26°C° 0 mm 2 m/s 759 mmHg 74%
    02:00 +26°C° 0 mm 2 m/s 759 mmHg 77%
    03:00 +25°C° 0 mm 1 m/s 759 mmHg 79%
    04:00 +26°C° 0 mm 1 m/s 759 mmHg 77%
    05:00 +26°C° 0 mm 1 m/s 760 mmHg 74%
    06:00 +27°C° 0 mm 1 m/s 760 mmHg 71%
    07:00 +29°C° 0 mm 1 m/s 760 mmHg 61%
    08:00 +32°C° 0 mm 1 m/s 760 mmHg 51%
    09:00 +34°C° 0 mm 1 m/s 760 mmHg 41%
    10:00 +36°C° 0 mm 2 m/s 760 mmHg 37%
    11:00 +37°C° 0 mm 3 m/s 760 mmHg 34%
    12:00 +38°C° 0 mm 4 m/s 759 mmHg 31%
    13:00 +39°C° 0 mm 5 m/s 759 mmHg 33%
    14:00 +37°C° 0 mm 5 m/s 759 mmHg 35%
    15:00 +38°C° 0 mm 6 m/s 759 mmHg 37%
    16:00 +35°C° 0 mm 5 m/s 759 mmHg 45%
    17:00 +34°C° 0 mm 5 m/s 759 mmHg 53%
    18:00 +32°C° 0 mm 4 m/s 759 mmHg 61%
    19:00 +30°C° 0 mm 4 m/s 760 mmHg 64%
    20:00 +29°C° 0 mm 3 m/s 760 mmHg 67%
    21:00 +28°C° 0 mm 3 m/s 761 mmHg 70%
    22:00 +28°C° 0 mm 2 m/s 761 mmHg 70%
    23:00 +27°C° 0 mm 2 m/s 761 mmHg 70%

    25 Agosto, Domingo

    Tempo Temperatura Precipitação Vento Pressão Humidade
    00:00 +27°C° 0 mm 1 m/s 760 mmHg 70%
    01:00 +26°C° 0 mm 2 m/s 760 mmHg 68%
    02:00 +26°C° 0 mm 2 m/s 760 mmHg 67%
    03:00 +26°C° 0 mm 3 m/s 760 mmHg 65%
    04:00 +26°C° 0 mm 3 m/s 760 mmHg 64%
    05:00 +26°C° 0 mm 3 m/s 761 mmHg 63%
    06:00 +26°C° 0 mm 3 m/s 761 mmHg 62%
    07:00 +29°C° 0 mm 3 m/s 761 mmHg 54%
    08:00 +31°C° 0 mm 3 m/s 761 mmHg 46%
    09:00 +35°C° 0 mm 3 m/s 761 mmHg 38%
    10:00 +36°C° 0 mm 3 m/s 761 mmHg 35%
    11:00 +37°C° 0 mm 4 m/s 761 mmHg 32%
    12:00 +38°C° 0 mm 4 m/s 760 mmHg 29%
    13:00 +37°C° 0 mm 5 m/s 760 mmHg 31%
    14:00 +38°C° 0 mm 6 m/s 760 mmHg 33%
    15:00 +36°C° 0 mm 7 m/s 760 mmHg 36%
    16:00 +35°C° 0 mm 6 m/s 760 mmHg 41%
    17:00 +33°C° 0 mm 6 m/s 760 mmHg 47%
    18:00 +32°C° 0 mm 5 m/s 760 mmHg 53%
    19:00 +29°C° 0 mm 4 m/s 760 mmHg 58%
    20:00 +28°C° 0 mm 3 m/s 760 mmHg 64%
    21:00 +27°C° 0 mm 2 m/s 761 mmHg 69%
    22:00 +27°C° 0 mm 2 m/s 761 mmHg 67%
    23:00 +27°C° 0 mm 2 m/s 760 mmHg 66%

    26 Agosto, Segunda-feira

    Tempo Temperatura Precipitação Vento Pressão Humidade
    00:00 +26°C° 0 mm 2 m/s 760 mmHg 64%
    01:00 +26°C° 0 mm 2 m/s 760 mmHg 62%
    02:00 +26°C° 0 mm 2 m/s 760 mmHg 60%
    03:00 +26°C° 0 mm 2 m/s 760 mmHg 58%
    04:00 +26°C° 0 mm 2 m/s 760 mmHg 59%
    05:00 +26°C° 0 mm 1 m/s 760 mmHg 60%
    06:00 +26°C° 0 mm 1 m/s 760 mmHg 61%
    07:00 +28°C° 0 mm 1 m/s 760 mmHg 51%
    08:00 +31°C° 0 mm 1 m/s 760 mmHg 41%
    09:00 +33°C° 0 mm 1 m/s 760 mmHg 31%
    10:00 +35°C° 0 mm 2 m/s 760 mmHg 30%
    11:00 +36°C° 0 mm 3 m/s 760 mmHg 28%
    12:00 +36°C° 0 mm 4 m/s 759 mmHg 27%
    13:00 +36°C° 0 mm 4 m/s 759 mmHg 27%
    14:00 +36°C° 0 mm 5 m/s 759 mmHg 28%
    15:00 +35°C° 0 mm 5 m/s 759 mmHg 29%
    16:00 +34°C° 0 mm 5 m/s 759 mmHg 35%
    17:00 +33°C° 0 mm 5 m/s 759 mmHg 41%
    18:00 +30°C° 0 mm 4 m/s 760 mmHg 47%
    19:00 +29°C° 0 mm 3 m/s 761 mmHg 52%
    20:00 +28°C° 0 mm 3 m/s 761 mmHg 57%
    21:00 +27°C° 0 mm 2 m/s 762 mmHg 62%
    22:00 +27°C° 0 mm 2 m/s 762 mmHg 60%
    23:00 +27°C° 0 mm 3 m/s 762 mmHg 58%

    27 Agosto, Terça-feira

    Tempo Temperatura Precipitação Vento Pressão Humidade
    00:00 +27°C° 0 mm 3 m/s 762 mmHg 57%
    01:00 +26°C° 0 mm 3 m/s 762 mmHg 58%
    02:00 +26°C° 0 mm 2 m/s 762 mmHg 59%
    03:00 +26°C° 0 mm 2 m/s 762 mmHg 60%
    04:00 +26°C° 0 mm 3 m/s 763 mmHg 58%
    05:00 +26°C° 0 mm 3 m/s 763 mmHg 56%
    06:00 +26°C° 0 mm 3 m/s 764 mmHg 55%
    07:00 +28°C° 0.1 mm 3 m/s 764 mmHg 48%
    08:00 +30°C° 0.1 mm 4 m/s 764 mmHg 41%
    09:00 +33°C° 0.1 mm 4 m/s 764 mmHg 35%
    10:00 +33°C° 0 mm 6 m/s 764 mmHg 35%
    11:00 +34°C° 0 mm 8 m/s 764 mmHg 36%
    12:00 +34°C° 0 mm 10 m/s 764 mmHg 37%
    13:00 +33°C° 0 mm 10 m/s 764 mmHg 39%
    14:00 +33°C° 0 mm 10 m/s 764 mmHg 42%
    15:00 +32°C° 0 mm 10 m/s 764 mmHg 44%
    16:00 +31°C° 0 mm 9 m/s 764 mmHg 46%
    17:00 +31°C° 0 mm 8 m/s 764 mmHg 48%
    18:00 +29°C° 0 mm 8 m/s 765 mmHg 50%
    19:00 +28°C° 0 mm 7 m/s 765 mmHg 54%
    20:00 +27°C° 0 mm 6 m/s 765 mmHg 58%
    21:00 +25°C° 0 mm 5 m/s 766 mmHg 63%
    22:00 +25°C° 0 mm 5 m/s 766 mmHg 63%
    23:00 +25°C° 0 mm 5 m/s 766 mmHg 62%
    Mostrar mais